Time,TemperatureF,DewpointF,PressureIn,WindDirection,WindDirectionDegrees,WindSpeedMPH,WindSpeedGustMPH,Humidity,HourlyPrecipIn,Conditions,Clouds,dailyrainin,SoftwareType,DateUTC
2013-10-04 01:28:00,57.0,48.0,30.07,NE,49,0.0,0.0,73,0.00,,,0.00,,2013-10-04 05:28:00,
2013-10-04 01:59:00,55.0,47.0,30.07,NE,48,0.0,0.0,75,0.00,,,0.00,,2013-10-04 05:59:00,
2013-10-04 02:19:00,55.0,48.0,30.07,NE,48,0.0,0.0,76,0.00,,,0.00,,2013-10-04 06:19:00,
2013-10-04 02:27:00,54.0,47.0,30.07,NE,49,0.0,0.0,77,0.00,,,0.00,,2013-10-04 06:27:00,
2013-10-04 02:59:00,52.0,47.0,30.07,NE,48,0.0,0.0,82,0.00,,,0.00,,2013-10-04 06:59:00,
2013-10-04 03:18:00,52.0,47.0,30.07,NE,49,0.0,0.0,82,0.00,,,0.00,,2013-10-04 07:18:00,
2013-10-04 03:26:00,52.0,47.0,30.06,NE,48,0.0,0.0,82,0.00,,,0.00,,2013-10-04 07:26:00,
2013-10-04 03:55:00,52.0,46.0,30.06,NE,49,0.0,0.0,81,0.00,,,0.00,,2013-10-04 07:55:00,
2013-10-04 04:18:00,52.0,47.0,30.06,NE,49,0.0,0.0,82,0.00,,,0.00,,2013-10-04 08:18:00,
2013-10-04 04:26:00,52.0,46.0,30.06,NE,44,0.0,0.0,81,0.00,,,0.00,,2013-10-04 08:26:00,
2013-10-04 04:55:00,52.0,47.0,30.06,NE,44,0.0,0.0,82,0.00,,,0.00,,2013-10-04 08:55:00,
2013-10-04 05:17:00,52.0,46.0,30.07,NE,44,0.0,0.0,81,0.00,,,0.00,,2013-10-04 09:17:00,
2013-10-04 05:26:00,52.0,46.0,30.07,NE,44,0.0,0.0,81,0.00,,,0.00,,2013-10-04 09:26:00,
2013-10-04 05:49:00,51.0,45.0,30.07,NE,44,0.0,0.0,81,0.00,,,0.00,,2013-10-04 09:49:00,
2013-10-04 05:57:00,51.0,46.0,30.07,NE,44,0.0,0.0,82,0.00,,,0.00,,2013-10-04 09:57:00,
2013-10-04 06:22:00,51.0,45.0,30.07,NE,44,0.0,0.0,81,0.00,,,0.00,,2013-10-04 10:22:00,
2013-10-04 06:30:00,51.0,45.0,30.07,NE,44,0.0,0.0,79,0.00,,,0.00,,2013-10-04 10:30:00,
2013-10-04 06:58:00,52.0,45.0,30.07,NE,44,0.0,0.0,77,0.00,,,0.00,,2013-10-04 10:58:00,
2013-10-04 07:21:00,52.0,46.0,30.07,NE,44,0.0,0.0,79,0.00,,,0.00,,2013-10-04 11:21:00,
2013-10-04 07:30:00,53.0,46.0,30.07,NE,44,0.0,0.0,77,0.00,,,0.00,,2013-10-04 11:30:00,
2013-10-04 07:57:00,53.0,47.0,30.08,NE,44,0.0,0.0,80,0.00,,,0.00,,2013-10-04 11:57:00,
2013-10-04 08:21:00,53.0,46.0,30.09,NE,44,0.0,0.0,77,0.00,,,0.00,,2013-10-04 12:21:00,
2013-10-04 08:30:00,53.0,47.0,30.09,NE,44,0.0,0.0,79,0.00,,,0.00,,2013-10-04 12:30:00,
2013-10-04 08:50:00,54.0,48.0,30.09,NE,44,0.0,0.0,80,0.00,,,0.00,,2013-10-04 12:50:00,
2013-10-04 08:57:00,55.0,50.0,30.10,NE,44,0.0,0.0,82,0.00,,,0.00,,2013-10-04 12:57:00,
2013-10-04 09:21:00,55.0,49.0,30.09,NE,44,0.0,0.0,79,0.00,,,0.00,,2013-10-04 13:21:00,
2013-10-04 09:29:00,56.0,50.0,30.09,NE,43,0.0,0.0,81,0.00,,,0.00,,2013-10-04 13:29:00,
2013-10-04 09:49:00,57.0,51.0,30.09,NE,43,0.0,0.0,79,0.00,,,0.00,,2013-10-04 13:49:00,
2013-10-04 09:57:00,57.0,52.0,30.09,NE,44,0.0,0.0,82,0.00,,,0.00,,2013-10-04 13:57:00,
2013-10-04 10:20:00,57.0,52.0,30.10,NNE,30,0.0,0.0,83,0.00,,,0.00,,2013-10-04 14:20:00,
2013-10-04 10:29:00,56.0,52.0,30.11,NW,311,0.0,0.0,87,0.00,,,0.00,,2013-10-04 14:29:00,
2013-10-04 10:50:00,55.0,50.0,30.11,West,259,0.0,3.0,84,0.00,,,0.00,,2013-10-04 14:50:00,
2013-10-04 10:57:00,54.0,51.0,30.11,NW,311,0.0,0.0,88,0.00,,,0.00,,2013-10-04 14:57:00,
2013-10-04 11:21:00,55.0,52.0,30.10,NW,311,0.0,1.0,90,0.00,,,0.00,,2013-10-04 15:21:00,
2013-10-04 11:30:00,55.0,52.0,30.10,NW,311,0.0,1.0,90,0.00,,,0.00,,2013-10-04 15:30:00,
2013-10-04 11:51:00,56.0,52.0,30.09,NW,311,0.0,0.0,87,0.01,,,0.01,,2013-10-04 15:51:00,
2013-10-04 12:02:00,56.0,53.0,30.09,NW,311,0.0,1.0,89,0.01,,,0.01,,2013-10-04 16:02:00,
2013-10-04 12:22:00,57.0,53.0,30.09,NW,311,0.0,0.0,88,0.01,,,0.01,,2013-10-04 16:22:00,
2013-10-04 12:30:00,57.0,54.0,30.09,SW,222,0.0,1.0,91,0.01,,,0.01,,2013-10-04 16:30:00,
2013-10-04 12:51:00,58.0,54.0,30.09,SSW,212,0.0,1.0,85,0.00,,,0.01,,2013-10-04 16:51:00,
2013-10-04 12:58:00,58.0,51.0,30.09,SE,146,0.0,3.0,77,0.00,,,0.01,,2013-10-04 16:58:00,
2013-10-04 13:22:00,59.0,51.0,30.09,SSW,203,0.0,2.0,74,0.00,,,0.01,,2013-10-04 17:22:00,
2013-10-04 13:30:00,59.0,51.0,30.08,SW,221,0.0,1.0,75,0.00,,,0.01,,2013-10-04 17:30:00,
2013-10-04 13:59:00,59.0,50.0,30.07,West,264,1.0,3.0,72,0.00,,,0.01,,2013-10-04 17:59:00,
2013-10-04 14:25:00,60.0,53.0,30.07,NW,309,1.0,3.0,78,0.00,,,0.01,,2013-10-04 18:25:00,
2013-10-04 14:33:00,60.0,52.0,30.06,SW,221,0.0,2.0,76,0.00,,,0.01,,2013-10-04 18:33:00,
2013-10-04 14:51:00,60.0,53.0,30.05,NW,309,0.0,2.0,78,0.00,,,0.01,,2013-10-04 18:51:00,
2013-10-04 15:12:00,61.0,52.0,30.06,WSW,257,0.0,1.0,73,0.00,,,0.01,,2013-10-04 19:12:00,
2013-10-04 15:22:00,61.0,52.0,30.05,WSW,257,0.0,1.0,71,0.00,,,0.01,,2013-10-04 19:22:00,
2013-10-04 15:43:00,61.0,52.0,30.05,SSW,210,0.0,2.0,71,0.00,,,0.01,,2013-10-04 19:43:00,
2013-10-04 15:52:00,61.0,52.0,30.05,SW,225,0.0,1.0,73,0.00,,,0.01,,2013-10-04 19:52:00,
2013-10-04 16:11:00,61.0,53.0,30.05,West,266,0.0,3.0,74,0.00,,,0.01,,2013-10-04 20:11:00,
2013-10-04 16:22:00,60.0,53.0,30.05,West,265,0.0,2.0,78,0.00,,,0.01,,2013-10-04 20:22:00,
2013-10-04 16:52:00,59.0,51.0,30.05,NNW,328,0.0,5.0,76,0.00,,,0.01,,2013-10-04 20:52:00,
2013-10-04 17:12:00,60.0,53.0,30.05,North,9,2.0,6.0,77,0.00,,,0.01,,2013-10-04 21:12:00,
2013-10-04 17:22:00,59.0,52.0,30.05,West,270,0.0,4.0,78,0.00,,,0.01,,2013-10-04 21:22:00,
2013-10-04 17:54:00,59.0,53.0,30.06,West,271,0.0,2.0,81,0.00,,,0.01,,2013-10-04 21:54:00,
2013-10-04 18:12:00,59.0,53.0,30.06,West,266,0.0,2.0,80,0.00,,,0.01,,2013-10-04 22:12:00,
2013-10-04 18:23:00,58.0,53.0,30.06,West,265,0.0,0.0,82,0.00,,,0.01,,2013-10-04 22:23:00,
2013-10-04 18:43:00,58.0,53.0,30.06,West,266,0.0,0.0,83,0.00,,,0.01,,2013-10-04 22:43:00,
2013-10-04 18:52:00,57.0,53.0,30.06,West,264,0.0,0.0,85,0.00,,,0.01,,2013-10-04 22:52:00,
2013-10-04 19:12:00,56.0,52.0,30.06,West,264,0.0,0.0,85,0.00,,,0.01,,2013-10-04 23:12:00,
2013-10-04 19:22:00,56.0,52.0,30.07,West,264,0.0,1.0,85,0.00,,,0.01,,2013-10-04 23:22:00,
2013-10-04 19:53:00,55.0,50.0,30.06,West,264,0.0,0.0,83,0.00,,,0.01,,2013-10-04 23:53:00,
2013-10-04 20:12:00,54.0,49.0,30.07,West,264,0.0,0.0,83,0.00,,,0.01,,2013-10-05 00:12:00,
2013-10-04 20:23:00,54.0,49.0,30.07,West,264,0.0,0.0,84,0.00,,,0.01,,2013-10-05 00:23:00,
2013-10-04 20:42:00,55.0,50.0,30.06,West,264,0.0,1.0,84,0.00,,,0.01,,2013-10-05 00:42:00,
2013-10-04 20:52:00,55.0,51.0,30.06,West,264,0.0,1.0,86,0.00,,,0.01,,2013-10-05 00:52:00,
2013-10-04 21:11:00,55.0,51.0,30.06,West,264,0.0,1.0,87,0.00,,,0.01,,2013-10-05 01:11:00,
2013-10-04 21:22:00,55.0,52.0,30.07,West,264,0.0,0.0,88,0.00,,,0.01,,2013-10-05 01:22:00,
2013-10-04 21:43:00,55.0,52.0,30.08,West,264,0.0,0.0,89,0.00,,,0.01,,2013-10-05 01:43:00,
2013-10-04 21:52:00,55.0,52.0,30.09,West,265,0.0,1.0,88,0.00,,,0.01,,2013-10-05 01:52:00,
2013-10-04 22:11:00,56.0,52.0,30.09,West,264,0.0,0.0,88,0.00,,,0.01,,2013-10-05 02:11:00,
2013-10-04 22:22:00,56.0,52.0,30.09,West,264,0.0,0.0,88,0.00,,,0.01,,2013-10-05 02:22:00,
2013-10-04 22:42:00,56.0,52.0,30.09,West,264,0.0,30.0,87,0.00,,,0.01,,2013-10-05 02:42:00,
2013-10-04 22:52:00,55.0,51.0,30.09,West,264,0.0,0.0,86,0.00,,,0.01,,2013-10-05 02:52:00,
2013-10-04 23:12:00,55.0,51.0,30.09,West,264,0.0,0.0,86,0.00,,,0.01,,2013-10-05 03:12:00,
2013-10-04 23:23:00,55.0,51.0,30.09,West,264,0.0,0.0,85,0.00,,,0.01,,2013-10-05 03:23:00,
2013-10-04 23:45:00,55.0,51.0,30.09,West,264,0.0,0.0,85,0.00,,,0.01,,2013-10-05 03:45:00,
2013-10-04 23:55:00,56.0,52.0,30.09,West,264,0.0,1.0,86,0.00,,,0.01,,2013-10-05 03:55:00,